| time (UTC) | temp F | wind direction | speed MPH | gust MPH | rain 1hr in | rain 24hr in | rain mn in | humidity % | barometer mb |
| 20260902185038 | 73 | 49 | 2.0 | 5.0 | 0.00 | 0.00 | 0.00 | 50 | 984.5 |
| 20260902184540 | 73 | 16 | 3.0 | 5.0 | 0.00 | 0.00 | 0.00 | 50 | 984.4 |
| 20260902184036 | 73 | 28 | 1.0 | 4.0 | 0.00 | 0.00 | 0.00 | 50 | 984.6 |
| 20260902183536 | 72 | 88 | 0.0 | 5.0 | 0.00 | 0.00 | 0.00 | 50 | 984.5 |
| 20260902183043 | 72 | 88 | 2.0 | 5.0 | 0.00 | 0.00 | 0.00 | 50 | 984.6 |
| 20260902182538 | 72 | 67 | 1.0 | 5.0 | 0.00 | 0.00 | 0.00 | 50 | 984.7 |
| 20260902182035 | 72 | 80 | 3.0 | 5.0 | 0.00 | 0.00 | 0.00 | 49 | 984.5 |
| 20260902181535 | 72 | 69 | 2.0 | 6.0 | 0.00 | 0.00 | 0.00 | 49 | 984.7 |
| 20260902181034 | 72 | 65 | 1.0 | 6.0 | 0.00 | 0.00 | 0.00 | 50 | 984.6 |
| 20260902180534 | 72 | 65 | 3.0 | 5.0 | 0.00 | 0.00 | 0.00 | 48 | 984.6 |
| 20260902180034 | 72 | 360 | 1.0 | 6.0 | 0.00 | 0.00 | 0.00 | 50 | 984.6 |
| 20260902175533 | 72 | 341 | 1.0 | 5.0 | 0.00 | 0.00 | 0.00 | 45 | 984.7 |
| 20260902175032 | 72 | 20 | 2.0 | 5.0 | 0.00 | 0.00 | 0.00 | 46 | 984.7 |
| 20260902174534 | 72 | 49 | 0.0 | 4.0 | 0.00 | 0.00 | 0.00 | 44 | 984.6 |
| 20260902174032 | 71 | 21 | 1.0 | 2.0 | 0.00 | 0.00 | 0.00 | 45 | 984.7 |
| 20260902173531 | 71 | 18 | 0.0 | 4.0 | 0.00 | 0.00 | 0.00 | 46 | 984.8 |
| 20260902173044 | 71 | 248 | 1.0 | 4.0 | 0.00 | 0.00 | 0.00 | 47 | 984.8 |
| 20260902172530 | 71 | 254 | 0.0 | 5.0 | 0.00 | 0.00 | 0.00 | 46 | 984.7 |
| 20260902172030 | 71 | 246 | 1.0 | 5.0 | 0.00 | 0.00 | 0.00 | 47 | 984.8 |
| 20260902171530 | 71 | 245 | 2.0 | 4.0 | 0.00 | 0.00 | 0.00 | 47 | 984.9 |
| 20260902171029 | 71 | 296 | 0.0 | 7.0 | 0.00 | 0.00 | 0.00 | 46 | 984.9 |
| 20260902170533 | 71 | 284 | 2.0 | 7.0 | 0.00 | 0.00 | 0.00 | 47 | 985.0 |
| 20260902170029 | 71 | 286 | 2.0 | 5.0 | 0.00 | 0.00 | 0.00 | 47 | 984.9 |
| 20260902165527 | 70 | 360 | 0.0 | 4.0 | 0.00 | 0.00 | 0.00 | 49 | 984.9 |
| 20260902165026 | 70 | 248 | 1.0 | 4.0 | 0.00 | 0.00 | 0.00 | 51 | 985.0 |
| 20260902164526 | 70 | 249 | 1.0 | 4.0 | 0.00 | 0.00 | 0.00 | 50 | 985.0 |
| 20260902164025 | 70 | 273 | 0.0 | 4.0 | 0.00 | 0.00 | 0.00 | 52 | 984.9 |
| 20260902163524 | 70 | 243 | 2.0 | 4.0 | 0.00 | 0.00 | 0.00 | 55 | 984.9 |
| 20260902163023 | 69 | 246 | 0.0 | 3.0 | 0.00 | 0.00 | 0.00 | 54 | 984.9 |
| 20260902162522 | 69 | 246 | 1.0 | 3.0 | 0.00 | 0.00 | 0.00 | 53 | 984.8 |
| 20260902162021 | 69 | 275 | 0.0 | 4.0 | 0.00 | 0.00 | 0.00 | 54 | 984.9 |
| 20260902161521 | 69 | 275 | 1.0 | 4.0 | 0.00 | 0.00 | 0.00 | 56 | 985.1 |
| 20260902161019 | 68 | 273 | 0.0 | 2.0 | 0.00 | 0.00 | 0.00 | 55 | 984.9 |
| 20260902160518 | 68 | 273 | 0.0 | 3.0 | 0.00 | 0.00 | 0.00 | 55 | 984.9 |
| 20260902160017 | 68 | 273 | 1.0 | 3.0 | 0.00 | 0.00 | 0.00 | 56 | 985.1 |
| 20260902155521 | 67 | 360 | 0.0 | 3.0 | 0.00 | 0.00 | 0.00 | 54 | 985.2 |
| 20260902155016 | 67 | 360 | 0.0 | 3.0 | 0.00 | 0.00 | 0.00 | 56 | 985.2 |
| 20260902154523 | 67 | 360 | 0.0 | 2.0 | 0.00 | 0.00 | 0.00 | 58 | 985.1 |
| 20260902154016 | 66 | 360 | 0.0 | 3.0 | 0.00 | 0.00 | 0.00 | 60 | 985.0 |
| 20260902153512 | 66 | 360 | 0.0 | 3.0 | 0.00 | 0.00 | 0.00 | 62 | 985.0 |
| 20260902153011 | 66 | 331 | 0.0 | 2.0 | 0.00 | 0.00 | 0.00 | 63 | 985.0 |
| 20260902152510 | 66 | 338 | 0.0 | 3.0 | 0.00 | 0.00 | 0.00 | 64 | 985.0 |
| 20260902152009 | 65 | 338 | 0.0 | 3.0 | 0.00 | 0.00 | 0.00 | 65 | 985.0 |
| 20260902151507 | 65 | 336 | 0.0 | 3.0 | 0.00 | 0.00 | 0.00 | 66 | 985.0 |
| 20260902151005 | 64 | 340 | 1.0 | 3.0 | 0.00 | 0.00 | 0.00 | 67 | 985.1 |
| 20260902150503 | 64 | 238 | 0.0 | 2.0 | 0.00 | 0.00 | 0.00 | 67 | 985.2 |
| 20260902145503 | 63 | 238 | 0.0 | 2.0 | 0.00 | 0.00 | 0.00 | 68 | 985.0 |
| 20260902145001 | 63 | 238 | 0.0 | 2.0 | 0.00 | 0.00 | 0.00 | 69 | 985.0 |
| 20260902144606 | 63 | 238 | 0.0 | 2.0 | 0.00 | 0.00 | 0.00 | 69 | 985.1 |
| 20260902144101 | 62 | 238 | 0.0 | 2.0 | 0.00 | 0.00 | 0.00 | 69 | 985.1 |
| 20260902143557 | 62 | 238 | 0.0 | 2.0 | 0.00 | 0.00 | 0.00 | 70 | 985.0 |
| 20260902143058 | 62 | 238 | 0.0 | 2.0 | 0.00 | 0.00 | 0.00 | 70 | 985.1 |
| 20260902142556 | 62 | 233 | 0.0 | 1.0 | 0.00 | 0.00 | 0.00 | 70 | 985.3 |
| 20260902142055 | 62 | 233 | 0.0 | 1.0 | 0.00 | 0.00 | 0.00 | 70 | 985.3 |
| 20260902141556 | 61 | 233 | 0.0 | 1.0 | 0.00 | 0.00 | 0.00 | 70 | 985.3 |
| 20260902141053 | 61 | 233 | 0.0 | 0.0 | 0.00 | 0.00 | 0.00 | 70 | 985.3 |
| 20260902140554 | 61 | 233 | 0.0 | 0.0 | 0.00 | 0.00 | 0.00 | 70 | 985.2 |
| 20260902140051 | 61 | 233 | 0.0 | 1.0 | 0.00 | 0.00 | 0.00 | 70 | 985.2 |
| 20260902135549 | 60 | 233 | 0.0 | 1.0 | 0.00 | 0.00 | 0.00 | 70 | 985.3 |
| 20260902135049 | 60 | 233 | 0.0 | 2.0 | 0.00 | 0.00 | 0.00 | 70 | 985.3 |
| 20260902134550 | 60 | 233 | 1.0 | 2.0 | 0.00 | 0.00 | 0.00 | 70 | 985.3 |
| 20260902134046 | 60 | 233 | 1.0 | 2.0 | 0.00 | 0.00 | 0.00 | 70 | 985.2 |
| 20260902133546 | 59 | 233 | 0.0 | 4.0 | 0.00 | 0.00 | 0.00 | 71 | 985.2 |
| 20260902133047 | 59 | 233 | 1.0 | 4.0 | 0.00 | 0.00 | 0.00 | 70 | 985.2 |
| 20260902132549 | 59 | 233 | 2.0 | 4.0 | 0.00 | 0.00 | 0.00 | 71 | 985.2 |
| 20260902132043 | 59 | 233 | 3.0 | 4.0 | 0.00 | 0.00 | 0.00 | 71 | 985.3 |
| 20260902131602 | 58 | 233 | 1.0 | 3.0 | 0.00 | 0.00 | 0.00 | 71 | 985.2 |
| 20260902131042 | 58 | 233 | 1.0 | 3.0 | 0.00 | 0.00 | 0.00 | 71 | 985.1 |
| 20260902130540 | 58 | 233 | 2.0 | 3.0 | 0.00 | 0.00 | 0.00 | 71 | 985.1 |
| 20260902130051 | 58 | 233 | 1.0 | 2.0 | 0.00 | 0.00 | 0.00 | 71 | 985.0 |
| 20260902125538 | 57 | 233 | 0.0 | 4.0 | 0.00 | 0.00 | 0.00 | 71 | 985.0 |
| 20260902125038 | 57 | 233 | 2.0 | 4.0 | 0.00 | 0.00 | 0.00 | 71 | 985.1 |
| 20260902124537 | 57 | 233 | 0.0 | 3.0 | 0.00 | 0.00 | 0.00 | 71 | 985.0 |
| 20260902124036 | 56 | 233 | 1.0 | 3.0 | 0.00 | 0.00 | 0.00 | 71 | 984.9 |
| 20260902123536 | 56 | 233 | 1.0 | 3.0 | 0.00 | 0.00 | 0.00 | 71 | 984.9 |
| 20260902123036 | 56 | 233 | 0.0 | 1.0 | 0.00 | 0.00 | 0.00 | 71 | 984.8 |
| 20260902122536 | 56 | 233 | 0.0 | 0.0 | 0.00 | 0.00 | 0.00 | 71 | 984.7 |
| 20260902122036 | 55 | 233 | 0.0 | 0.0 | 0.00 | 0.00 | 0.00 | 71 | 984.7 |
| 20260902121537 | 55 | 233 | 0.0 | 1.0 | 0.00 | 0.00 | 0.00 | 71 | 984.6 |
| 20260902121034 | 55 | 233 | 0.0 | 4.0 | 0.00 | 0.00 | 0.00 | 71 | 984.8 |
| 20260902120534 | 55 | 233 | 2.0 | 4.0 | 0.00 | 0.00 | 0.00 | 70 | 984.7 |
| 20260902120034 | 56 | 233 | 0.0 | 0.0 | 0.00 | 0.00 | 0.00 | 70 | 984.8 |
| 20260902115537 | 56 | 233 | 0.0 | 0.0 | 0.00 | 0.00 | 0.00 | 71 | 984.8 |
| 20260902115035 | 56 | 233 | 0.0 | 0.0 | 0.00 | 0.00 | 0.00 | 71 | 984.8 |
| 20260902114535 | 56 | 233 | 0.0 | 0.0 | 0.00 | 0.00 | 0.00 | 71 | 984.8 |
| 20260902114036 | 56 | 233 | 0.0 | 0.0 | 0.00 | 0.00 | 0.00 | 71 | 984.7 |
| 20260902113534 | 55 | 233 | 0.0 | 0.0 | 0.00 | 0.00 | 0.00 | 71 | 984.7 |
| 20260902113033 | 55 | 233 | 0.0 | 0.0 | 0.00 | 0.00 | 0.00 | 71 | 984.7 |
| 20260902112534 | 55 | 233 | 0.0 | 0.0 | 0.00 | 0.00 | 0.00 | 71 | 984.6 |
| 20260902112036 | 55 | 233 | 0.0 | 0.0 | 0.00 | 0.00 | 0.00 | 71 | 984.6 |
| 20260902111534 | 54 | 233 | 0.0 | 0.0 | 0.00 | 0.00 | 0.00 | 70 | 984.7 |
| 20260902111032 | 55 | 233 | 0.0 | 0.0 | 0.00 | 0.00 | 0.00 | 70 | 984.7 |
| 20260902110531 | 55 | 233 | 0.0 | 0.0 | 0.00 | 0.00 | 0.00 | 70 | 984.6 |
| 20260902110042 | 55 | 233 | 0.0 | 0.0 | 0.00 | 0.00 | 0.00 | 71 | 984.5 |
| 20260902105530 | 55 | 233 | 0.0 | 0.0 | 0.00 | 0.00 | 0.00 | 71 | 984.6 |
| 20260902105030 | 55 | 233 | 0.0 | 0.0 | 0.00 | 0.00 | 0.00 | 70 | 984.6 |
| 20260902104537 | 55 | 233 | 0.0 | 0.0 | 0.00 | 0.00 | 0.00 | 71 | 984.6 |
| 20260902104029 | 55 | 233 | 0.0 | 0.0 | 0.00 | 0.00 | 0.00 | 70 | 984.7 |
| 20260902103528 | 55 | 233 | 0.0 | 0.0 | 0.00 | 0.00 | 0.00 | 70 | 984.7 |
| 20260902103034 | 55 | 233 | 0.0 | 0.0 | 0.00 | 0.00 | 0.00 | 70 | 984.7 |
| 20260902102528 | 55 | 233 | 0.0 | 0.0 | 0.00 | 0.00 | 0.00 | 70 | 984.7 |
| 20260902102028 | 55 | 233 | 0.0 | 0.0 | 0.00 | 0.00 | 0.00 | 70 | 984.6 |
| 20260902101528 | 56 | 233 | 0.0 | 0.0 | 0.00 | 0.00 | 0.00 | 70 | 984.7 |
| 20260902101027 | 56 | 233 | 0.0 | 0.0 | 0.00 | 0.00 | 0.00 | 70 | 984.7 |
| 20260902100530 | 57 | 233 | 0.0 | 0.0 | 0.00 | 0.00 | 0.00 | 71 | 984.7 |
| 20260902100027 | 57 | 233 | 0.0 | 0.0 | 0.00 | 0.00 | 0.00 | 71 | 984.7 |
| 20260902095528 | 56 | 233 | 0.0 | 0.0 | 0.00 | 0.00 | 0.00 | 71 | 984.7 |
| 20260902095026 | 56 | 233 | 0.0 | 2.0 | 0.00 | 0.00 | 0.00 | 71 | 984.6 |
| 20260902094526 | 55 | 233 | 0.0 | 3.0 | 0.00 | 0.00 | 0.00 | 70 | 984.6 |
| 20260902094033 | 56 | 233 | 2.0 | 3.0 | 0.00 | 0.00 | 0.00 | 70 | 984.7 |
| 20260902093526 | 56 | 233 | 2.0 | 3.0 | 0.00 | 0.00 | 0.00 | 70 | 984.7 |
| 20260902093035 | 56 | 233 | 0.0 | 2.0 | 0.00 | 0.00 | 0.00 | 70 | 984.6 |
| 20260902092525 | 56 | 233 | 0.0 | 1.0 | 0.00 | 0.00 | 0.00 | 70 | 984.5 |
| 20260902092024 | 57 | 233 | 0.0 | 2.0 | 0.00 | 0.00 | 0.00 | 70 | 984.5 |
| 20260902091527 | 57 | 233 | 1.0 | 2.0 | 0.00 | 0.00 | 0.00 | 70 | 984.5 |
| 20260902091024 | 57 | 233 | 1.0 | 2.0 | 0.00 | 0.00 | 0.00 | 70 | 984.4 |
| 20260902090523 | 57 | 233 | 1.0 | 2.0 | 0.00 | 0.00 | 0.00 | 70 | 984.4 |
| 20260902090023 | 57 | 233 | 1.0 | 3.0 | 0.00 | 0.00 | 0.00 | 70 | 984.4 |
| 20260902085523 | 57 | 233 | 2.0 | 3.0 | 0.00 | 0.00 | 0.00 | 70 | 984.4 |
| 20260902085023 | 57 | 233 | 1.0 | 2.0 | 0.00 | 0.00 | 0.00 | 70 | 984.4 |
| 20260902084525 | 56 | 233 | 1.0 | 2.0 | 0.00 | 0.00 | 0.00 | 70 | 984.4 |
| 20260902084023 | 56 | 233 | 0.0 | 2.0 | 0.00 | 0.00 | 0.00 | 70 | 984.4 |
| 20260902083522 | 56 | 233 | 0.0 | 2.0 | 0.00 | 0.00 | 0.00 | 70 | 984.4 |
| 20260902083033 | 56 | 233 | 1.0 | 2.0 | 0.00 | 0.00 | 0.00 | 70 | 984.4 |
| 20260902082522 | 56 | 233 | 1.0 | 2.0 | 0.00 | 0.00 | 0.00 | 70 | 984.6 |
| 20260902082021 | 56 | 233 | 0.0 | 0.0 | 0.00 | 0.00 | 0.00 | 70 | 984.5 |
| 20260902081526 | 55 | 233 | 0.0 | 0.0 | 0.00 | 0.00 | 0.00 | 70 | 984.4 |
| 20260902081020 | 55 | 233 | 0.0 | 1.0 | 0.00 | 0.00 | 0.00 | 70 | 984.4 |
| 20260902080520 | 55 | 233 | 0.0 | 1.0 | 0.00 | 0.00 | 0.00 | 70 | 984.3 |
| 20260902080026 | 56 | 233 | 0.0 | 0.0 | 0.00 | 0.00 | 0.00 | 69 | 984.4 |
| 20260902075517 | 56 | 233 | 0.0 | 0.0 | 0.00 | 0.00 | 0.00 | 69 | 984.4 |
| 20260902075019 | 56 | 233 | 0.0 | 0.0 | 0.00 | 0.00 | 0.00 | 70 | 984.4 |
| 20260902074517 | 57 | 233 | 0.0 | 0.0 | 0.00 | 0.00 | 0.00 | 70 | 984.4 |
| 20260902074018 | 56 | 233 | 0.0 | 2.0 | 0.00 | 0.00 | 0.00 | 70 | 984.4 |
| 20260902073517 | 56 | 233 | 0.0 | 3.0 | 0.00 | 0.00 | 0.00 | 70 | 984.3 |
| 20260902073028 | 57 | 233 | 2.0 | 3.0 | 0.00 | 0.00 | 0.00 | 70 | 984.4 |
| 20260902072516 | 57 | 233 | 2.0 | 3.0 | 0.00 | 0.00 | 0.00 | 70 | 984.4 |
| 20260902072017 | 57 | 233 | 0.0 | 2.0 | 0.00 | 0.00 | 0.00 | 70 | 984.4 |
| 20260902071518 | 57 | 233 | 0.0 | 0.0 | 0.00 | 0.00 | 0.00 | 70 | 984.4 |
| 20260902071016 | 57 | 233 | 0.0 | 0.0 | 0.00 | 0.00 | 0.00 | 70 | 984.5 |
| 20260902070515 | 57 | 233 | 0.0 | 0.0 | 0.00 | 0.00 | 0.00 | 70 | 984.4 |
| 20260902070015 | 57 | 233 | 0.0 | 2.0 | 0.00 | 0.00 | 0.00 | 70 | 984.4 |
| 20260902065514 | 57 | 233 | 0.0 | 2.0 | 0.00 | 0.00 | 0.00 | 70 | 984.3 |
| 20260902065014 | 57 | 233 | 1.0 | 3.0 | 0.00 | 0.00 | 0.00 | 70 | 984.3 |
| 20260902064515 | 57 | 233 | 2.0 | 3.0 | 0.00 | 0.00 | 0.00 | 70 | 984.3 |
| 20260902064014 | 57 | 233 | 1.0 | 3.0 | 0.00 | 0.00 | 0.00 | 70 | 984.3 |
| 20260902063515 | 56 | 233 | 1.0 | 2.0 | 0.00 | 0.00 | 0.00 | 70 | 984.2 |
| 20260902063016 | 56 | 233 | 0.0 | 2.0 | 0.00 | 0.00 | 0.00 | 70 | 984.3 |
| 20260902062512 | 56 | 233 | 1.0 | 2.0 | 0.00 | 0.00 | 0.00 | 70 | 984.3 |
| 20260902062011 | 56 | 233 | 1.0 | 2.0 | 0.00 | 0.00 | 0.00 | 70 | 984.3 |
| 20260902061513 | 56 | 233 | 1.0 | 4.0 | 0.00 | 0.00 | 0.00 | 70 | 984.2 |
| 20260902061019 | 57 | 233 | 2.0 | 4.0 | 0.00 | 0.00 | 0.00 | 70 | 984.2 |
| 20260902060510 | 57 | 244 | 2.0 | 4.0 | 0.00 | 0.00 | 0.00 | 70 | 984.1 |
| 20260902060010 | 57 | 244 | 2.0 | 4.0 | 0.00 | 0.00 | 0.00 | 70 | 984.1 |
| 20260902055509 | 57 | 269 | 3.0 | 4.0 | 0.00 | 0.00 | 0.00 | 70 | 984.1 |
| 20260902055009 | 57 | 269 | 2.0 | 3.0 | 0.00 | 0.00 | 0.00 | 70 | 984.1 |
| 20260902054520 | 57 | 269 | 1.0 | 2.0 | 0.00 | 0.00 | 0.00 | 70 | 984.1 |
| 20260902054007 | 57 | 269 | 0.0 | 3.0 | 0.00 | 0.00 | 0.00 | 69 | 984.0 |
| 20260902053507 | 57 | 269 | 2.0 | 3.0 | 0.00 | 0.00 | 0.00 | 69 | 983.9 |
| 20260902053008 | 57 | 269 | 1.0 | 3.0 | 0.00 | 0.00 | 0.00 | 69 | 983.8 |
| 20260902052507 | 57 | 273 | 0.0 | 2.0 | 0.00 | 0.00 | 0.00 | 70 | 983.8 |
| 20260902052004 | 57 | 273 | 0.0 | 1.0 | 0.00 | 0.00 | 0.00 | 70 | 983.9 |
| 20260902051507 | 57 | 273 | 0.0 | 1.0 | 0.00 | 0.00 | 0.00 | 69 | 983.9 |
| 20260902051004 | 57 | 273 | 0.0 | 0.0 | 0.00 | 0.00 | 0.00 | 69 | 983.9 |
| 20260902050503 | 57 | 273 | 0.0 | 0.0 | 0.00 | 0.00 | 0.00 | 69 | 983.9 |
| 20260902050004 | 57 | 273 | 0.0 | 0.0 | 0.00 | 0.00 | 0.00 | 69 | 983.9 |
| 20260902045502 | 57 | 273 | 0.0 | 0.0 | 0.00 | 0.00 | 0.00 | 69 | 983.9 |
| 20260902045001 | 57 | 273 | 0.0 | 2.0 | 0.00 | 0.00 | 0.00 | 69 | 983.9 |
| 20260902044502 | 58 | 273 | 0.0 | 2.0 | 0.00 | 0.00 | 0.00 | 69 | 983.9 |
| 20260902044002 | 58 | 257 | 0.0 | 0.0 | 0.00 | 0.00 | 0.00 | 69 | 983.9 |
| 20260902043501 | 58 | 257 | 0.0 | 0.0 | 0.00 | 0.00 | 0.00 | 69 | 984.0 |
| 20260902043001 | 58 | 257 | 0.0 | 0.0 | 0.00 | 0.00 | 0.00 | 69 | 984.0 |
| 20260902042501 | 59 | 257 | 0.0 | 0.0 | 0.00 | 0.00 | 0.00 | 69 | 984.0 |
| 20260902042001 | 59 | 257 | 0.0 | 0.0 | 0.00 | 0.00 | 0.00 | 69 | 984.0 |
| 20260902041610 | 58 | 257 | 0.0 | 1.0 | 0.00 | 0.00 | 0.00 | 69 | 984.0 |
| 20260902041059 | 58 | 257 | 0.0 | 2.0 | 0.00 | 0.00 | 0.00 | 69 | 984.0 |
| 20260902040559 | 58 | 257 | 0.0 | 2.0 | 0.00 | 0.00 | 0.00 | 69 | 983.9 |
| 20260902040103 | 58 | 257 | 0.0 | 1.0 | 0.00 | 0.00 | 0.00 | 68 | 983.9 |
| 20260902035559 | 58 | 257 | 0.0 | 2.0 | 0.00 | 0.00 | 0.00 | 68 | 983.9 |
| 20260902035058 | 58 | 257 | 0.0 | 2.0 | 0.00 | 0.00 | 0.00 | 67 | 983.9 |
| 20260902034559 | 58 | 257 | 0.0 | 3.0 | 0.00 | 0.00 | 0.00 | 66 | 983.8 |
| 20260902034100 | 59 | 257 | 1.0 | 3.0 | 0.00 | 0.00 | 0.00 | 66 | 983.9 |
| 20260902033557 | 59 | 257 | 2.0 | 3.0 | 0.00 | 0.00 | 0.00 | 66 | 983.9 |
| 20260902033101 | 59 | 343 | 0.0 | 0.0 | 0.00 | 0.00 | 0.00 | 65 | 983.8 |
| 20260902032601 | 59 | 343 | 0.0 | 2.0 | 0.00 | 0.00 | 0.00 | 65 | 983.8 |
| 20260902032056 | 60 | 343 | 1.0 | 2.0 | 0.00 | 0.00 | 0.00 | 66 | 983.8 |
| 20260902031556 | 59 | 344 | 0.0 | 0.0 | 0.00 | 0.00 | 0.00 | 63 | 983.7 |
| 20260902031056 | 59 | 344 | 0.0 | 0.0 | 0.00 | 0.00 | 0.00 | 61 | 983.7 |
| 20260902030559 | 60 | 344 | 0.0 | 0.0 | 0.00 | 0.00 | 0.00 | 61 | 983.7 |
| 20260902030055 | 60 | 344 | 0.0 | 0.0 | 0.00 | 0.00 | 0.00 | 60 | 983.6 |
| 20260902025555 | 60 | 344 | 0.0 | 0.0 | 0.00 | 0.00 | 0.00 | 59 | 983.5 |
| 20260902025054 | 61 | 344 | 0.0 | 0.0 | 0.00 | 0.00 | 0.00 | 60 | 983.5 |
| 20260902024553 | 61 | 344 | 0.0 | 0.0 | 0.00 | 0.00 | 0.00 | 60 | 983.4 |
| 20260902024053 | 61 | 344 | 0.0 | 0.0 | 0.00 | 0.00 | 0.00 | 59 | 983.3 |
| 20260902023553 | 61 | 344 | 0.0 | 0.0 | 0.00 | 0.00 | 0.00 | 59 | 983.3 |
| 20260902023053 | 61 | 344 | 0.0 | 0.0 | 0.00 | 0.00 | 0.00 | 59 | 983.3 |
| 20260902022554 | 61 | 344 | 0.0 | 0.0 | 0.00 | 0.00 | 0.00 | 58 | 983.3 |
| 20260902022052 | 62 | 344 | 0.0 | 0.0 | 0.00 | 0.00 | 0.00 | 57 | 983.4 |
| 20260902021555 | 62 | 344 | 0.0 | 0.0 | 0.00 | 0.00 | 0.00 | 57 | 983.4 |
| 20260902021053 | 62 | 344 | 0.0 | 0.0 | 0.00 | 0.00 | 0.00 | 56 | 983.4 |
| 20260902020552 | 63 | 344 | 0.0 | 0.0 | 0.00 | 0.00 | 0.00 | 56 | 983.4 |
| 20260902020052 | 63 | 344 | 0.0 | 0.0 | 0.00 | 0.00 | 0.00 | 55 | 983.3 |
| 20260902015551 | 63 | 344 | 0.0 | 0.0 | 0.00 | 0.00 | 0.00 | 56 | 983.3 |
| 20260902015051 | 63 | 344 | 0.0 | 0.0 | 0.00 | 0.00 | 0.00 | 55 | 983.2 |
| 20260902014553 | 64 | 344 | 0.0 | 0.0 | 0.00 | 0.00 | 0.00 | 55 | 983.2 |
| 20260902014053 | 64 | 344 | 0.0 | 0.0 | 0.00 | 0.00 | 0.00 | 55 | 983.2 |
| 20260902013549 | 64 | 344 | 0.0 | 0.0 | 0.00 | 0.00 | 0.00 | 55 | 983.1 |
| 20260902013049 | 64 | 343 | 0.0 | 0.0 | 0.00 | 0.00 | 0.00 | 54 | 983.1 |
| 20260902012548 | 65 | 343 | 0.0 | 0.0 | 0.00 | 0.00 | 0.00 | 54 | 983.1 |
| 20260902012048 | 65 | 344 | 0.0 | 0.0 | 0.00 | 0.00 | 0.00 | 54 | 983.0 |
| 20260902011549 | 66 | 344 | 0.0 | 0.0 | 0.00 | 0.00 | 0.00 | 53 | 982.9 |
| 20260902011048 | 66 | 343 | 0.0 | 0.0 | 0.00 | 0.00 | 0.00 | 53 | 982.9 |
| 20260902010547 | 67 | 343 | 0.0 | 0.0 | 0.00 | 0.00 | 0.00 | 53 | 982.9 |
| 20260902010048 | 67 | 343 | 0.0 | 0.0 | 0.00 | 0.00 | 0.00 | 52 | 982.9 |
| 20260902005550 | 68 | 343 | 0.0 | 0.0 | 0.00 | 0.00 | 0.00 | 52 | 983.0 |
| 20260902005050 | 68 | 343 | 0.0 | 0.0 | 0.00 | 0.00 | 0.00 | 52 | 983.0 |
| 20260902004548 | 68 | 343 | 0.0 | 0.0 | 0.00 | 0.00 | 0.00 | 51 | 983.0 |
| 20260902004047 | 68 | 343 | 0.0 | 0.0 | 0.00 | 0.00 | 0.00 | 51 | 982.9 |
| 20260902003549 | 69 | 343 | 0.0 | 0.0 | 0.00 | 0.00 | 0.00 | 51 | 982.9 |
| 20260902003054 | 69 | 343 | 0.0 | 0.0 | 0.00 | 0.00 | 0.00 | 50 | 982.9 |
| 20260902002549 | 69 | 343 | 0.0 | 0.0 | 0.00 | 0.00 | 0.00 | 50 | 982.9 |
| 20260902002046 | 69 | 343 | 0.0 | 0.0 | 0.00 | 0.00 | 0.00 | 50 | 982.9 |
| 20260902001547 | 69 | 343 | 0.0 | 0.0 | 0.00 | 0.00 | 0.00 | 50 | 982.9 |
| 20260902001046 | 69 | 343 | 0.0 | 0.0 | 0.00 | 0.00 | 0.00 | 50 | 982.9 |
| 20260902000546 | 69 | 343 | 0.0 | 3.0 | 0.00 | 0.00 | 0.00 | 50 | 982.9 |
| 20260902000111 | 69 | 343 | 0.0 | 4.0 | 0.00 | 0.00 | 0.00 | 50 | 983.0 |
| 20260901235547 | 69 | 343 | 2.0 | 4.0 | 0.00 | 0.02 | 0.00 | 49 | 982.9 |
| 20260901235045 | 69 | 340 | 2.0 | 4.0 | 0.00 | 0.02 | 0.00 | 49 | 982.9 |
| 20260901234545 | 69 | 341 | 1.0 | 4.0 | 0.00 | 0.02 | 0.00 | 49 | 983.0 |
| 20260901234045 | 69 | 360 | 1.0 | 6.0 | 0.00 | 0.02 | 0.00 | 49 | 982.9 |
| 20260901233544 | 69 | 335 | 3.0 | 6.0 | 0.00 | 0.02 | 0.00 | 48 | 982.8 |
| 20260901233044 | 70 | 292 | 2.0 | 5.0 | 0.00 | 0.02 | 0.00 | 49 | 982.8 |
| 20260901232545 | 70 | 308 | 2.0 | 6.0 | 0.00 | 0.02 | 0.00 | 48 | 982.9 |
| 20260901232045 | 70 | 360 | 3.0 | 6.0 | 0.00 | 0.02 | 0.00 | 48 | 982.8 |
| 20260901231549 | 70 | 296 | 2.0 | 5.0 | 0.00 | 0.02 | 0.00 | 48 | 982.9 |
| 20260901231045 | 70 | 355 | 3.0 | 8.0 | 0.00 | 0.02 | 0.00 | 48 | 982.8 |
| 20260901230543 | 70 | 343 | 4.0 | 8.0 | 0.00 | 0.02 | 0.00 | 46 | 982.8 |
| 20260901230043 | 70 | 339 | 3.0 | 8.0 | 0.00 | 0.02 | 0.00 | 47 | 982.7 |
| 20260901225543 | 70 | 360 | 4.0 | 8.0 | 0.00 | 0.02 | 0.00 | 46 | 982.7 |
| 20260901225042 | 70 | 308 | 4.0 | 8.0 | 0.00 | 0.02 | 0.00 | 46 | 982.8 |
| 20260901224542 | 70 | 360 | 3.0 | 8.0 | 0.00 | 0.02 | 0.00 | 46 | 982.8 |
| 20260901224042 | 70 | 296 | 4.0 | 8.0 | 0.00 | 0.02 | 0.00 | 46 | 982.8 |
| 20260901223542 | 70 | 360 | 3.0 | 5.0 | 0.00 | 0.02 | 0.00 | 47 | 982.6 |
| 20260901223042 | 70 | 346 | 2.0 | 6.0 | 0.00 | 0.02 | 0.00 | 47 | 982.7 |
| 20260901222543 | 70 | 350 | 3.0 | 8.0 | 0.00 | 0.02 | 0.00 | 46 | 982.7 |
| 20260901222041 | 70 | 349 | 3.0 | 8.0 | 0.00 | 0.02 | 0.00 | 47 | 982.6 |
| 20260901221541 | 70 | 360 | 4.0 | 7.0 | 0.00 | 0.02 | 0.00 | 47 | 982.7 |
| 20260901221041 | 70 | 270 | 3.0 | 6.0 | 0.00 | 0.02 | 0.00 | 46 | 982.6 |
| 20260901220541 | 70 | 348 | 3.0 | 5.0 | 0.00 | 0.02 | 0.00 | 46 | 982.7 |
| 20260901220106 | 70 | 300 | 1.0 | 6.0 | 0.00 | 0.02 | 0.00 | 46 | 982.6 |
| 20260901215540 | 70 | 300 | 3.0 | 6.0 | 0.00 | 0.02 | 0.00 | 46 | 982.6 |
| 20260901215040 | 70 | 306 | 2.0 | 5.0 | 0.00 | 0.02 | 0.00 | 46 | 982.5 |
| 20260901214539 | 70 | 5 | 0.0 | 6.0 | 0.00 | 0.02 | 0.00 | 46 | 982.5 |
| 20260901214039 | 70 | 35 | 3.0 | 9.0 | 0.00 | 0.02 | 0.00 | 46 | 982.6 |
| 20260901213540 | 70 | 345 | 3.0 | 9.0 | 0.00 | 0.02 | 0.00 | 46 | 982.6 |
| 20260901213105 | 71 | 9 | 4.0 | 9.0 | 0.00 | 0.02 | 0.00 | 45 | 982.5 |
| 20260901212539 | 71 | 360 | 5.0 | 9.0 | 0.00 | 0.02 | 0.00 | 45 | 982.6 |
| 20260901212038 | 71 | 360 | 2.0 | 6.0 | 0.00 | 0.02 | 0.00 | 46 | 982.6 |
| 20260901211538 | 71 | 338 | 3.0 | 10.0 | 0.00 | 0.02 | 0.00 | 46 | 982.5 |
| 20260901211037 | 70 | 360 | 5.0 | 10.0 | 0.00 | 0.02 | 0.00 | 45 | 982.4 |
| 20260901210537 | 70 | 360 | 4.0 | 10.0 | 0.00 | 0.02 | 0.00 | 45 | 982.3 |
| 20260901210047 | 70 | 294 | 6.0 | 10.0 | 0.00 | 0.02 | 0.00 | 45 | 982.4 |
| 20260901205538 | 70 | 304 | 4.0 | 8.0 | 0.00 | 0.02 | 0.00 | 44 | 982.3 |
| 20260901205038 | 70 | 342 | 5.0 | 11.0 | 0.00 | 0.02 | 0.00 | 44 | 982.4 |
| 20260901204539 | 71 | 290 | 6.0 | 12.0 | 0.00 | 0.02 | 0.00 | 43 | 982.2 |
| 20260901204039 | 71 | 307 | 7.0 | 12.0 | 0.00 | 0.02 | 0.00 | 43 | 982.2 |
| 20260901203537 | 71 | 294 | 8.0 | 12.0 | 0.00 | 0.02 | 0.00 | 43 | 982.2 |
| 20260901203052 | 71 | 360 | 7.0 | 12.0 | 0.00 | 0.02 | 0.00 | 43 | 982.3 |
| 20260901202535 | 70 | 269 | 5.0 | 11.0 | 0.00 | 0.02 | 0.00 | 46 | 982.2 |
| 20260901202041 | 70 | 269 | 7.0 | 11.0 | 0.00 | 0.02 | 0.00 | 46 | 982.2 |
| 20260901201534 | 70 | 272 | 4.0 | 10.0 | 0.00 | 0.02 | 0.00 | 46 | 982.3 |
| 20260901201034 | 70 | 242 | 4.0 | 10.0 | 0.00 | 0.02 | 0.00 | 46 | 982.3 |
| 20260901200535 | 70 | 277 | 5.0 | 13.0 | 0.00 | 0.02 | 0.00 | 45 | 982.4 |
| 20260901200034 | 70 | 293 | 7.0 | 13.0 | 0.00 | 0.02 | 0.00 | 45 | 982.2 |
| 20260901195533 | 70 | 285 | 7.0 | 14.0 | 0.00 | 0.02 | 0.00 | 45 | 982.3 |
| 20260901195034 | 70 | 279 | 7.0 | 14.0 | 0.00 | 0.02 | 0.00 | 44 | 982.3 |
| 20260901194540 | 70 | 360 | 6.0 | 11.0 | 0.00 | 0.02 | 0.00 | 45 | 982.2 |
| 20260901194032 | 70 | 360 | 6.0 | 10.0 | 0.00 | 0.02 | 0.00 | 44 | 982.2 |
| 20260901193532 | 70 | 277 | 5.0 | 13.0 | 0.00 | 0.02 | 0.00 | 45 | 982.3 |
| 20260901193037 | 70 | 267 | 8.0 | 13.0 | 0.00 | 0.02 | 0.00 | 43 | 982.2 |
| 20260901192531 | 70 | 281 | 6.0 | 12.0 | 0.00 | 0.02 | 0.00 | 44 | 982.3 |
| 20260901192030 | 69 | 248 | 6.0 | 12.0 | 0.00 | 0.02 | 0.00 | 44 | 982.3 |
| 20260901191534 | 69 | 270 | 8.0 | 13.0 | 0.00 | 0.02 | 0.00 | 45 | 982.3 |
| 20260901191033 | 69 | 271 | 7.0 | 16.0 | 0.00 | 0.02 | 0.00 | 45 | 982.3 |
| 20260901190529 | 69 | 252 | 9.0 | 16.0 | 0.00 | 0.02 | 0.00 | 45 | 982.4 |
| 20260901190030 | 69 | 360 | 7.0 | 14.0 | 0.00 | 0.02 | 0.00 | 45 | 982.4 |
| 20260901185529 | 69 | 247 | 9.0 | 14.0 | 0.00 | 0.02 | 0.00 | 45 | 982.4 |